Time,TemperatureF,DewpointF,PressureIn,WindDirection,WindDirectionDegrees,WindSpeedMPH,WindSpeedGustMPH,Humidity,HourlyPrecipIn,Conditions,Clouds,dailyrainin,SoftwareType,DateUTC
2013-11-29 12:35:00,66.4,41.3,29.56,South,180,2.7,2.7,40,0.00,,---,0.00,VWS V14.01,2013-11-29 11:35:00,
2013-11-29 12:36:00,66.4,41.3,29.56,South,180,2.7,2.7,40,0.00,,---,0.00,VWS V14.01,2013-11-29 11:36:00,
2013-11-29 12:37:00,66.6,41.5,29.56,WSW,248,0.9,2.7,40,0.00,,---,0.00,VWS V14.01,2013-11-29 11:37:00,
2013-11-29 12:42:00,66.4,41.3,29.56,West,270,2.2,2.7,40,0.00,,---,0.00,VWS V14.01,2013-11-29 11:42:00,
2013-11-29 12:47:00,66.6,41.5,29.56,SSE,158,2.7,2.7,40,0.00,,---,0.00,VWS V14.01,2013-11-29 11:47:00,
2013-11-29 12:52:00,66.4,41.3,29.56,WSW,248,1.3,2.7,40,0.00,,---,0.00,VWS V14.01,2013-11-29 11:52:00,
2013-11-29 12:53:00,66.4,41.3,29.56,West,270,3.4,3.4,40,0.00,,---,0.00,VWS V14.01,2013-11-29 11:53:00,
2013-11-29 13:45:00,67.3,40.8,29.53,WSW,248,2.9,3.4,38,0.00,,---,0.00,VWS V14.01,2013-11-29 12:45:00,
2013-11-29 13:50:00,67.3,40.8,29.53,West,270,1.3,2.9,38,0.00,,---,0.00,VWS V14.01,2013-11-29 12:50:00,
2013-11-29 13:55:00,68.0,41.5,29.53,West,270,1.6,1.6,38,0.00,,---,0.00,VWS V14.01,2013-11-29 12:55:00,
2013-11-29 14:00:00,67.1,40.7,29.53,West,270,2.0,2.0,38,0.00,,---,0.00,VWS V14.01,2013-11-29 13:00:00,
2013-11-29 14:05:00,66.4,40.0,29.53,WNW,292,1.3,1.6,38,0.00,,---,0.00,VWS V14.01,2013-11-29 13:05:00,
2013-11-29 14:10:00,66.6,40.2,29.53,West,270,1.6,1.6,38,0.00,,---,0.00,VWS V14.01,2013-11-29 13:10:00,
2013-11-29 14:15:00,66.6,40.9,29.53,East,90,3.4,3.4,39,0.00,,---,0.00,VWS V14.01,2013-11-29 13:15:00,
2013-11-29 14:20:00,65.8,40.2,29.53,West,270,1.1,1.1,39,0.00,,---,0.00,VWS V14.01,2013-11-29 13:20:00,
2013-11-29 14:25:00,66.0,40.4,29.53,East,90,1.3,1.3,39,0.00,,---,0.00,VWS V14.01,2013-11-29 13:25:00,
2013-11-29 14:30:00,65.5,39.9,29.53,North,0,2.0,2.5,39,0.00,,---,0.00,VWS V14.01,2013-11-29 13:30:00,
2013-11-29 14:36:00,64.4,38.9,29.53,East,90,0.9,0.9,39,0.00,,---,0.00,VWS V14.01,2013-11-29 13:36:00,
2013-11-29 14:41:00,64.9,40.1,29.53,West,270,2.7,2.7,40,0.00,,---,0.00,VWS V14.01,2013-11-29 13:41:00,
2013-11-29 14:46:00,64.2,39.4,29.53,WSW,248,3.1,3.1,40,0.00,,---,0.00,VWS V14.01,2013-11-29 13:46:00,
2013-11-29 14:51:00,63.9,39.1,29.53,ESE,112,1.6,2.9,40,0.00,,---,0.00,VWS V14.01,2013-11-29 13:51:00,
2013-11-29 14:56:00,63.7,38.9,29.53,NNW,338,1.6,1.6,40,0.00,,---,0.00,VWS V14.01,2013-11-29 13:56:00,
2013-11-29 15:01:00,63.1,38.5,29.53,West,270,2.0,2.0,40,0.00,,---,0.00,VWS V14.01,2013-11-29 14:01:00,
2013-11-29 15:06:00,63.5,38.8,29.53,West,270,1.3,3.4,40,0.00,,---,0.00,VWS V14.01,2013-11-29 14:06:00,
2013-11-29 15:11:00,63.3,38.6,29.53,NNW,338,1.6,1.6,40,0.00,,---,0.00,VWS V14.01,2013-11-29 14:11:00,
2013-11-29 15:16:00,63.1,38.5,29.53,West,270,2.0,2.5,40,0.00,,---,0.00,VWS V14.01,2013-11-29 14:16:00,
2013-11-29 15:21:00,63.0,38.3,29.53,NW,315,1.6,2.0,40,0.00,,---,0.00,VWS V14.01,2013-11-29 14:21:00,
2013-11-29 15:26:00,63.1,39.1,29.53,SE,135,0.9,0.9,41,0.00,,---,0.00,VWS V14.01,2013-11-29 14:26:00,
2013-11-29 15:32:00,63.3,39.2,29.53,East,90,0.9,0.9,41,0.00,,---,0.00,VWS V14.01,2013-11-29 14:32:00,
2013-11-29 15:37:00,63.1,39.1,29.50,WSW,248,0.9,2.0,41,0.00,,---,0.00,VWS V14.01,2013-11-29 14:37:00,
2013-11-29 15:42:00,62.8,38.8,29.50,West,270,1.6,1.6,41,0.00,,---,0.00,VWS V14.01,2013-11-29 14:42:00,
2013-11-29 15:47:00,62.2,38.3,29.50,West,270,1.6,1.6,41,0.00,,---,0.00,VWS V14.01,2013-11-29 14:47:00,
2013-11-29 15:52:00,62.6,38.6,29.50,East,90,3.4,3.4,41,0.00,,---,0.00,VWS V14.01,2013-11-29 14:52:00,